Flag for Brazil Weather past 2 weeks in Londrina, Paraná, Brazil

Now
73 °F

Sunny.


Feels Like: 77 °F
Forecast: 59 / 83 °F
Wind: 5 mph from East

Location: Londrina Aeroporto

Current Time: Jul 31, 2015 at 11:27:28 AM

Latest Report: Jul 31, 2015 at 11:00 AM


Visibility: 10 mi

Pressure: 30.18 "Hg (28.11 "Hg at 615m altitude)

Humidity: 53%

Dew point: 55 °F

Location of LondrinaLocation

Historic Weather in Londrina — Graph

°F

Londrina temperature yesterday

Maximum temperature yesterday: 82 °F (at 3:00 PM)
Minimum temperature yesterday: 59 °F (at 5:00 AM)
Average temperature yesterday: 70 °F

Past Weeks' High & Low Weather Summary

 TemperatureHumidityPressure
High82 °F (Jul 30, 3:00 PM)100% (Jul 16, 11:00 PM)30.30 "Hg (Jul 16, 11:00 PM)
Low52 °F (Jul 27, 7:00 AM)39% (Jul 30, 4:00 PM)29.98 "Hg (Jul 20, 9:00 PM)
Average66 °F77%30.14 "Hg
* Reported Jul 16 10:00 AM — Jul 31 10:00 AM, Londrina, Weather by CustomWeather, © 2015

Note: Actual official high and low records may vary slightly from our data, if they occured in-between our weather recording intervals... More about our weather records

Advertising

Londrina weather history for previous 24 hours

 ConditionsComfort  
Time TempWeatherWind HumidityBarometerVisibility
10:00 AM
Fri, Jul 31
70 °FSunny.6 mph60%30.18 "Hg10 mi
9:00 AM64 °FSunny.2 mph73%30.18 "Hg10 mi
8:00 AM61 °FSunny.No wind83%30.15 "Hg10 mi
7:00 AM61 °FSunny.3 mph77%30.15 "Hg10 mi
6:00 AM61 °FSunny.2 mph77%30.12 "Hg10 mi
5:00 AM59 °FClear.2 mph88%30.12 "Hg10 mi
4:00 AM59 °FClear.3 mph88%30.12 "Hg10 mi
3:00 AM61 °FClear.3 mph83%30.12 "Hg10 mi
2:00 AM61 °FClear.1 mph88%30.15 "Hg10 mi
1:00 AM63 °FClear.3 mph83%30.15 "Hg10 mi
12:00 AM64 °FClear.No wind78%30.15 "Hg10 mi
11:00 PM
Thu, Jul 30
66 °FClear.No wind73%30.15 "Hg10 mi
10:00 PM68 °FClear.3 mph69%30.15 "Hg10 mi
9:00 PM72 °FClear.5 mph57%30.15 "Hg10 mi
8:00 PM72 °FClear.3 mph57%30.15 "Hg10 mi
7:00 PM75 °FClear.5 mph50%30.12 "Hg10 mi
6:00 PM77 °FClear.3 mph47%30.12 "Hg10 mi
5:00 PM81 °FSunny.5 mph39%30.12 "Hg10 mi
4:00 PM81 °FSunny.5 mph39%30.12 "Hg10 mi
3:00 PM82 °FSunny.6 mph40%30.12 "Hg10 mi
2:00 PM81 °FSunny.5 mph42%30.15 "Hg10 mi
1:00 PM81 °FSunny.6 mph45%30.18 "Hg10 mi
12:00 PM77 °FSunny.7 mph54%30.21 "Hg10 mi
11:00 AM73 °FSunny.6 mph57%30.24 "Hg10 mi
Weather by CustomWeather, © 2015

See weather overviewHow to use our weather pages